Provo, UT

5:59 AM MST on January 21, 2018 (GMT -0700)
Provo Municipal

Weather History for KPVU - September, 2014

Change the Weather History Date:

Wednesday, September 10, 2014

  Actual Average Record
Temperature  
Mean Temperature 62 °F -  
Max Temperature 75 °F 77 °F 89 °F (1990)
Min Temperature 48 °F 50 °F 42 °F (2000)
Degree Days  
Heating Degree Days 4    
Growing Degree Days 12 (Base 50)    
Moisture  
Dew Point 46 °F    
Average Humidity 70    
Maximum Humidity 88    
Minimum Humidity 27    
Precipitation  
Precipitation 0.01 in - - ()
Sea Level Pressure  
Sea Level Pressure 30.10 in    
Wind  
Wind Speed 6 mph (SE)    
Max Wind Speed 13 mph    
Max Gust Speed 16 mph    
Visibility 12 miles    
Events      
Averages and records for this station are not official NWS values.
T = Trace of Precipitation, MM = Missing Value Source: NWS Daily Summary

Daily Weather History Graph

Daily Weather History Graph

Search for Another Location

Airport or City:

Trip Planner

Search our weather history database for the weather conditions in past years. The results will help you decide how hot, cold, wet, or windy it might be!

Date:

Astronomy

Sep. 10, 2014 Rise Set
Actual Time 7:03 AM MDT 7:43 PM MDT
Civil Twilight 6:35 AM MDT 8:11 PM MDT
Nautical Twilight 6:03 AM MDT 8:43 PM MDT
Astronomical Twilight 5:29 AM MDT 9:16 PM MDT
Moon 8:44 PM MDT (9/10) 8:55 AM MDT (9/10)
Length of Visible Light 13h 35m
Length of Day
12h 40m
Waning Gibbous, 96% of the Moon is Illuminated
Sep 10
Waning Gibbous
Sep 15
Last Quarter
Sep 24
New
Oct 1
First Quarter
Oct 8
Full

Hourly Weather History & Observations

Time (MDT) Temp. Dew Point Humidity Pressure Visibility Wind Dir Wind Speed Gust Speed Precip Events Conditions
12:15 AM 53.6 °F 48.2 °F 82% 30.09 in 10.0 mi ESE 10.4 mph 16.1 mph N/A   Clear
12:35 AM 53.6 °F 48.2 °F 82% 30.09 in 10.0 mi ESE 8.1 mph - N/A   Clear
12:55 AM 53.6 °F 48.2 °F 82% 30.09 in 10.0 mi ESE 4.6 mph - N/A   Clear
1:15 AM 51.8 °F 48.2 °F 88% 30.09 in 10.0 mi Calm Calm - N/A   Clear
1:35 AM 51.8 °F 46.4 °F 82% 30.10 in 10.0 mi SSE 5.8 mph - N/A   Clear
1:55 AM 50.0 °F 46.4 °F 87% 30.10 in 10.0 mi SSE 6.9 mph - N/A   Clear
2:15 AM 53.6 °F 46.4 °F 77% 30.10 in 10.0 mi East 6.9 mph - N/A   Clear
2:35 AM 51.8 °F 46.4 °F 82% 30.11 in 10.0 mi Calm Calm - N/A   Clear
2:55 AM 51.8 °F 46.4 °F 82% 30.10 in 10.0 mi ESE 4.6 mph - N/A   Clear
3:15 AM 51.8 °F 44.6 °F 76% 30.10 in 10.0 mi South 3.5 mph - N/A   Clear
3:35 AM 50.0 °F 44.6 °F 82% 30.10 in 10.0 mi South 4.6 mph - N/A   Clear
3:55 AM 50.0 °F 46.4 °F 87% 30.10 in 10.0 mi ESE 6.9 mph - N/A   Clear
4:15 AM 48.2 °F 44.6 °F 87% 30.10 in 10.0 mi East 4.6 mph - N/A   Clear
4:35 AM 48.2 °F 44.6 °F 87% 30.10 in 10.0 mi SE 3.5 mph - N/A   Clear
4:55 AM 48.2 °F 44.6 °F 87% 30.10 in 10.0 mi SE 5.8 mph - N/A   Clear
5:15 AM 50.0 °F 44.6 °F 82% 30.10 in 10.0 mi ESE 3.5 mph - N/A   Clear
5:35 AM 51.8 °F 44.6 °F 76% 30.11 in 10.0 mi SE 12.7 mph - N/A   Clear
5:55 AM 51.8 °F 44.6 °F 76% 30.11 in 10.0 mi ESE 6.9 mph - N/A   Clear
6:15 AM 50.0 °F 44.6 °F 82% 30.11 in 10.0 mi Calm Calm - N/A   Clear
6:35 AM 48.2 °F 44.6 °F 87% 30.11 in 10.0 mi SE 4.6 mph - N/A   Clear
6:49 AM 48.2 °F 44.6 °F 87% 30.11 in 15.0 mi Calm Calm - N/A   Partly Cloudy
7:49 AM 48.2 °F 44.6 °F 87% 30.12 in 15.0 mi SSE 6.9 mph - N/A   Partly Cloudy
8:50 AM 55.4 °F 48.2 °F 77% 30.14 in 15.0 mi SE 9.2 mph - N/A   Partly Cloudy
9:50 AM 59.0 °F 48.2 °F 67% 30.15 in 15.0 mi SE 8.1 mph - N/A   Partly Cloudy
11:54 AM 66.2 °F 48.2 °F 52% 30.16 in 15.0 mi SE 4.6 mph - N/A   Partly Cloudy
12:47 PM 68.0 °F 50.0 °F 52% 30.15 in 15.0 mi SE 4.6 mph - N/A   Partly Cloudy
1:48 PM 73.4 °F 48.2 °F 41% 30.13 in 15.0 mi SE 4.6 mph - N/A   Partly Cloudy
3:55 PM 75.2 °F 48.2 °F 38% 30.09 in 15.0 mi Variable 4.6 mph - N/A   Scattered Clouds
4:49 PM 75.2 °F 42.8 °F 31% 30.08 in 15.0 mi SSW 3.5 mph - N/A   Scattered Clouds
5:47 PM 75.2 °F 39.2 °F 27% 30.07 in 15.0 mi Variable 4.6 mph - N/A   Scattered Clouds
6:47 PM 73.4 °F 41.0 °F 31% 30.06 in 15.0 mi Calm Calm - N/A   Scattered Clouds
7:57 PM 66.2 °F 51.8 °F 60% 30.06 in 15.0 mi Variable 5.8 mph - N/A   Scattered Clouds
8:52 PM 62.6 °F 50.0 °F 63% 30.08 in 15.0 mi Calm Calm - N/A   Scattered Clouds
9:15 PM 62.6 °F 50.0 °F 63% 30.08 in 10.0 mi Calm Calm - N/A   Clear
9:35 PM 62.6 °F 48.2 °F 59% 30.09 in 10.0 mi SE 3.5 mph - N/A   Clear
9:55 PM 60.8 °F 48.2 °F 63% 30.09 in 10.0 mi SSE 6.9 mph - N/A   Clear
10:15 PM 57.2 °F 46.4 °F 67% 30.09 in 10.0 mi SSE 8.1 mph - N/A   Clear
10:35 PM 57.2 °F 46.4 °F 67% 30.09 in 10.0 mi SE 8.1 mph - N/A   Clear
10:55 PM 57.2 °F 44.6 °F 63% 30.09 in 10.0 mi SE 8.1 mph - N/A   Clear
11:15 PM 55.4 °F 44.6 °F 67% 30.09 in 10.0 mi SE 4.6 mph - N/A   Clear
11:35 PM 55.4 °F 42.8 °F 63% 30.10 in 10.0 mi ESE 4.6 mph - N/A   Clear
11:55 PM 55.4 °F 41.0 °F 58% 30.10 in 10.0 mi East 3.5 mph - N/A   Clear